Regional Weather Roundup
Issued by NWS

Home | Current Version | Previous Version | Text Only | Print | Product List | Glossary On
Versions: 1 2 3 4 5 6 7 8 9 10 11 12 13 14 15 16 17 18 19 20 21 22 23 24 25 26 27 28 29 30 31 32 33 34 35 36 37 38 39 40 41 42 43 44 45 46 47 48 49 50
000
ASUS46 KPQR 250510
RWROR

OREGON REGIONAL WEATHER ROUNDUP
NATIONAL WEATHER SERVICE PORTLAND OR
1000 PM PDT SUN MAY 24 2015

NOTE: "FAIR" INDICATES FEW OR NO CLOUDS BELOW 12,000 FEET WITH
NO SIGNIFICANT WEATHER AND/OR OBSTRUCTIONS TO VISIBILITY.

ORZ001>013-250600-
NORTHWEST OREGON


CITY           SKY/WX    TMP DP  RH WIND       PRES   REMARKS
ASTORIA        CLOUDY    52  49  89 W5        30.07R
NEWPORT        CLOUDY    52  48  87 N8        30.10R
PORTLAND       MOCLDY    59  49  69 NW9       30.03R
VANCOUVER WA   CLOUDY    58  47  66 NW8       30.02R
SCAPPOOSE      PTCLDY    55  46  71 N5        30.03R
HILLSBORO      MOCLDY    55  48  77 NW9       30.02R
AURORA         MOCLDY    60  54  80 CALM      30.02R
MCMINNVILLE    MOCLDY    54  49  83 SW12      30.02R
SALEM          MOCLDY    57  49  74 W7        30.01R
CORVALLIS      CLEAR     55  48  76 NW14      30.03R
EUGENE         PTCLDY    57  52  83 NW7       30.01R
$$

ORZ021-028-250600-
SOUTHWEST OREGON


CITY           SKY/WX    TMP DP  RH WIND       PRES   REMARKS
NORTH BEND     CLOUDY    54  50  87 N18       30.08R
BROOKINGS      CLOUDY    52  52 100 CALM      29.97R FOG
ROSEBURG       CLEAR     64  47  53 N5        29.99R
SEXTON SUMMIT  CLEAR     49  42  77 N10G20    30.01S
MEDFORD        CLEAR     65  51  60 NW5       29.96R
$$

ORZ014>016-041-250600-
COLUMBIA GORGE


CITY           SKY/WX    TMP DP  RH WIND       PRES   REMARKS
TROUTDALE      CLOUDY    61  49  64 NW7       30.01R
THE DALLES     PTCLDY    65  45  48 W25G38    29.88R
$$

ORZ029>031-041-044-049-050-061>064-502-503-505>511-250600-
EASTERN OREGON


CITY           SKY/WX    TMP DP  RH WIND       PRES   REMARKS
REDMOND        CLEAR     58  41  53 NW7       29.96R
BEND           MOCLDY    57  39  51 N9        29.97R
PRINEVILLE     CLEAR     57  32  38 NW10G16   29.96R
KLAMATH FALLS  PTCLDY    58  46  64 NW8       29.97R
LAKEVIEW       PTCLDY    55  45  67 SE8       30.00R
HERMISTON      MOCLDY    65  47  52 SW12      29.83R
PENDLETON      MOCLDY    62  47  57 NW12      29.83R
JOHN DAY       PTCLDY    63  44  50 CALM      29.92S
MEACHAM        PTCLDY    52  48  86 CALM      29.93S
LA GRANDE      PTCLDY    57  43  58 CALM      29.88R
BAKER CITY     PTCLDY    54  46  74 W6        29.90R
BURNS          MOCLDY    58  42  55 NW5       29.94R
ROME             N/A     57  48  72 SE7       29.92R
ONTARIO        PTCLDY    68  45  43 NW9       29.83R
$$


USA.gov is the U.S. government's official web portal to all federal, state and local government web resources and services.